Regional Weather Roundup
Issued by NWS Little Rock, AR

Home | Current Version | Previous Version | Graphics & Text | Print | Product List | Glossary Off
Versions: 1 2 3 4 5 6 7 8 9 10 11 12 13 14 15 16 17 18 19 20 21 22 23 24 25 26 27 28 29 30 31 32 33 34 35 36 37 38 39 40 41 42 43 44 45 46 47 48 49 50

000
ASUS44 KLZK 260612
RWRLZK

WEATHER ROUNDUP FOR ARKANSAS
NATIONAL WEATHER SERVICE LITTLE ROCK AR
100 AM CDT FRI MAY 26 2017

NOTE: "FAIR" INDICATES FEW OR NO CLOUDS BELOW 12,000 FEET WITH NO
SIGNIFICANT WEATHER AND/OR OBSTRUCTIONS TO VISIBILITY.

ARZ001-003-010-029-260700-
NORTHWEST ARKANSAS

CITY           SKY/WX    TMP DP  RH WIND       PRES   REMARKS
FAYETTEVILLE   CLEAR     70  61  73 S9        29.68F
6HR MIN TEMP:  69; 6HR MAX TEMP:  77;

FORT SMITH     PTCLDY    69  59  70 E7        29.68F
6HR MIN TEMP:  69; 6HR MAX TEMP:  83;

HARRISON       PTCLDY    65  58  78 SE8       29.74F
6HR MIN TEMP:  65; 6HR MAX TEMP:  74;

BENTONVILLE    CLEAR     66  57  72 SE6       29.68F
6HR MIN TEMP:  66; 6HR MAX TEMP:  79;

ROGERS         CLEAR     67  59  75 SE8       29.69F
6HR MIN TEMP:  67; 6HR MAX TEMP:  77; 6HR PCP:  0.02;

SILOAM SPGS    CLEAR     70  57  64 SE10G17   29.66F
6HR MIN TEMP:  70; 6HR MAX TEMP:  77;

HIGHFILL       CLEAR     67  60  78 S9        29.68F
6HR MIN TEMP:  67; 6HR MAX TEMP:  78;

$$

ARZ004-005-016-260700-
NORTH CENTRAL ARKANSAS

CITY           SKY/WX    TMP DP  RH WIND       PRES   REMARKS
BATESVILLE     CLOUDY    66  57  72 SE5       29.80R
6HR MIN TEMP:  66; 6HR MAX TEMP:  75;

FLIPPIN        CLOUDY    64  54  68 CALM      29.73S
6HR MIN TEMP:  64; 6HR MAX TEMP:  75;

MTN HOME       CLOUDY    64  56  75 SE5       29.75F
6HR MIN TEMP:  63; 6HR MAX TEMP:  74;

$$

ARZ040-041-260700-
WEST CENTRAL ARKANSAS

CITY           SKY/WX    TMP DP  RH WIND       PRES   REMARKS
MENA           PTCLDY    77  66  69 S6        29.75F
MOUNT IDA      CLEAR     75  59  57 VRB5      29.73S
6HR MIN TEMP:  74; 6HR MAX TEMP:  79;

$$

ARZ009-017-025-026-028-260700-
NORTHEAST ARKANSAS

CITY           SKY/WX    TMP DP  RH WIND       PRES   REMARKS
JONESBORO      CLEAR     64  58  80 SW3       29.81R
6HR MIN TEMP:  63; 6HR MAX TEMP:  75;

WALNUT RIDGE   CLEAR     64  55  72 S9        29.80S
6HR MIN TEMP:  64; 6HR MAX TEMP:  75;

BLYTHEVILLE    CLEAR     65  57  75 S7        29.83R
6HR MIN TEMP:  65; 6HR MAX TEMP:  76;

$$

ARZ022-023-033-042-044-260700-
CENTRAL ARKANSAS

CITY           SKY/WX    TMP DP  RH WIND       PRES   REMARKS
LITTLE ROCK    CLEAR     66  62  87 SE5       29.78R
6HR MIN TEMP:  66; 6HR MAX TEMP:  77;

N LITTLE ROCK    N/A     68  61  77 S6        29.78S
6HR MIN TEMP:  68; 6HR MAX TEMP:  78;

JACKSONVILLE   CLEAR     68  61  78 SE3       29.77S
6HR MIN TEMP:  68; 6HR MAX TEMP:  79;

CONWAY           N/A     70  61  73 CALM      29.74F
SEARCY         CLEAR     63  61  93 SE5       29.80S
6HR MIN TEMP:  63; 6HR MAX TEMP:  77;

HOT SPRINGS    CLEAR     71  63  75 S7        29.77S
6HR MIN TEMP:  71; 6HR MAX TEMP:  80;

RUSSELLVILLE   CLEAR     69  59  70 E6        29.73F
6HR MIN TEMP:  69; 6HR MAX TEMP:  80;

CLINTON        FAIR      59  59 100 CALM      29.77F
$$

ARZ036-260700-
EAST ARKANSAS

CITY           SKY/WX    TMP DP  RH WIND       PRES   REMARKS
WEST MEMPHIS   PTCLDY    65  60  84 S8        29.82S
6HR MIN TEMP:  62; 6HR MAX TEMP:  74;

$$

ARZ050-053-066-070-073-260700-
SOUTHWEST ARKANSAS

CITY           SKY/WX    TMP DP  RH WIND       PRES   REMARKS
ARKADELPHIA    FAIR      65  63  93 CALM      29.77R
6HR MIN TEMP:  65; 6HR MAX TEMP:  81;

CAMDEN         CLOUDY    68  63  83 S6        29.79R
TEXARKANA      PTCLDY    72  62  71 S12       29.75S
6HR MIN TEMP:  72; 6HR MAX TEMP:  81;

EL DORADO      PTCLDY    70  64  81 S8        29.80R
6HR MIN TEMP:  69; 6HR MAX TEMP:  82;

DE QUEEN       PTCLDY    73  65  75 SE6       29.72R
6HR MIN TEMP:  73; 6HR MAX TEMP:  83;

$$

ARZ056-057-069-260700-
SOUTHEAST ARKANSAS

CITY           SKY/WX    TMP DP  RH WIND       PRES   REMARKS
PINE BLUFF     CLEAR     68  62  81 S8        29.80R
6HR MIN TEMP:  68; 6HR MAX TEMP:  77;

STUTTGART      PTCLDY    70  54  56 SE10      29.81R
6HR MIN TEMP:  68; 6HR MAX TEMP:  79;

MONTICELLO     CLEAR     68  62  81 S7        29.81R
6HR MIN TEMP:  68; 6HR MAX TEMP:  79;


$$





USA.gov is the U.S. government's official web portal to all federal, state and local government web resources and services.